Location: Obersdorf
(47.4079°N, 10.2781°E)
Time: 23:51:18
(UTC+02:00)

Nauka - Visible Passes

Search period start: 28 September 2021 00:00
Search period end: 08 October 2021 00:00
Orbit: 417 x 423 km, 51.6° (Epoch: 28 September)

Date Brightness Start Highest point End Pass type
(mag) Time Alt. Az. Time Alt. Az. Time Alt. Az.
28 Sep ? 19:29:14 10° WNW 19:32:25 38° N 19:35:37 10° ENE visible
28 Sep ? 21:06:13 10° WNW 21:09:10 59° NNW 21:09:10 59° NNW visible
29 Sep ? 20:18:53 10° WNW 20:22:12 52° NNE 20:23:38 29° ENE visible
29 Sep ? 21:55:48 10° WNW 21:56:36 16° W 21:56:36 16° W visible
30 Sep ? 19:31:32 10° WNW 19:34:47 44° N 19:38:02 10° E visible
30 Sep ? 21:08:23 10° WNW 21:11:06 49° W 21:11:06 49° W visible
01 Oct ? 20:21:01 10° WNW 20:24:24 89° SSW 20:25:39 36° ESE visible
01 Oct ? 21:58:30 10° W 21:58:37 11° W 21:58:37 11° W visible
02 Oct ? 19:33:40 10° WNW 19:37:02 67° NNE 19:40:14 11° ESE visible
02 Oct ? 21:10:46 10° W 21:13:13 26° SW 21:13:13 26° SW visible
03 Oct ? 20:23:13 10° WNW 20:26:24 40° SW 20:27:53 25° SSE visible
04 Oct ? 19:35:46 10° WNW 19:39:05 61° SSW 19:42:25 10° SE visible
04 Oct ? 21:14:17 10° WSW 21:15:20 11° SW 21:15:37 11° SW visible
05 Oct ? 20:25:51 10° W 20:28:10 17° SW 20:30:27 10° S visible
06 Oct ? 19:38:03 10° W 19:40:56 26° SW 19:43:47 10° SSE visible
